Location: Unspecified
(0.0000°N, 0.0000°E)
Time: 04:38:33
(UTC+01:00)

SJ-6B - Visible Passes

Search period start: 22 January 2017 00:00
Search period end: 01 February 2017 00:00
Orbit: 513 x 583 km, 97.8° (Epoch: 21 January)

Date Brightness Start Highest point End Pass type
(mag) Time Alt. Az. Time Alt. Az. Time Alt. Az.
22 Jan 3.2 19:51:58 10° SSE 19:55:43 43° ENE 19:59:33 10° N visible
23 Jan 3.4 19:47:16 10° SE 19:50:56 36° ENE 19:54:37 10° NNE visible
24 Jan 3.6 19:42:36 10° SE 19:46:07 30° ENE 19:49:41 10° NNE visible
25 Jan 3.8 19:37:58 10° SE 19:41:19 26° ENE 19:44:42 10° NNE visible
25 Jan 6.3 21:15:00 10° WSW 21:15:44 10° WSW 21:16:29 10° W visible
26 Jan 4.1 19:33:23 10° SE 19:36:31 22° ENE 19:39:41 10° NNE visible
26 Jan 6.2 21:09:11 10° SW 21:10:56 13° WSW 21:12:41 10° WNW visible
27 Jan 6.0 21:03:49 10° SW 21:06:08 15° WSW 21:08:27 10° WNW visible
28 Jan 5.8 20:58:36 10° SW 21:01:19 18° WSW 21:04:04 10° WNW visible
29 Jan 5.5 20:53:28 10° SSW 20:56:31 21° WSW 20:59:36 10° NW visible
30 Jan 5.2 20:48:24 10° SSW 20:51:43 24° WSW 20:55:03 10° NW visible
31 Jan 4.9 20:43:23 10° SSW 20:46:54 29° WSW 20:50:28 10° NW visible
